Aérodrome :
LOGIN :

S'inscrire | Disclaimer

   EN    FR    IT 

 










Légende :    VFR   VFR Marginal   IFR   IFR Intensif   IFR Très Intensif
Visi : 
Plafond : 
>= 8 km
>= 3000ft
5 à 8 km
1000 à 3000 ft
1500m à 5 km
500 à 1000 ft
800 à 1500m
200 à 500 ft
< 800m
< 200 ft
Symboles :   Orages  Brouillard  Fortes neiges  Fortes précipitations  Vent > 20 kt
SIGMETs :   Divers  Orages  Givrage  Turbulence  Onde Orograph.  Cendres Volcan.







- Altitude de l'aérodrome : 598 ft
- Code IATA : BQH
- Voir les cartes d'approche


EGKB - Biggin Hill

DERNIER METAR :
  • 182120Z 07007KT CAVOK 12/06 Q1026

METARs EXPIRÉS :
  • 182050Z 07009KT CAVOK 11/06 Q1025
  • 182020Z 06007KT CAVOK 11/06 Q1025
  • 181950Z 06007KT CAVOK 11/07 Q1025
  • 181920Z 06008KT CAVOK 12/07 Q1025

TAF TAF EGKB
Valide du 18 à 21h jusqu'au 18 à 23h UTC


181951Z 1821/1823 07008KT CAVOK
TEMPO 1821/1823 8000
Pas de NOTAMs connus pour ce terrain.



MET'MAP, la Météo Aéronautique d'un coup d'oeil ! - Copyright ORBIFLY Décembre 2007 - Disclaimer

ORBIFLY MET'MAP TEAM :

Programmation & Développement : Alexandra Zaïnal
Conception & Développement : Baudouin d'Aumeries
Co-Programmation & Développement : Marc-Olivier Méhu
Soutien technique & logistique : Manuel Goepfert

Contact : metmap@orbifly.com




SOURCES & CREDITS :

   NOAA